Avery Island, LA

4:52 PM CDT on August 24, 2016 (GMT -0500)
Acadiana Regional

Weather History for KARA - November, 2013

Change the Weather History Date:

Saturday, November 23, 2013

  Actual Average Record
Temperature  
Mean Temperature 58 °F 59 °F  
Max Temperature 67 °F 70 °F 84 °F (1955)
Min Temperature 48 °F 48 °F 29 °F (1975)
Degree Days  
Heating Degree Days 7 7  
Month to date heating degree days 88 104  
Since 1 July heating degree days 94 138  
Cooling Degree Days 0 1  
Month to date cooling degree days 59 36  
Year to date cooling degree days 3191 2781  
Growing Degree Days 7 (Base 50)    
Moisture  
Dew Point 53 °F    
Average Humidity 85    
Maximum Humidity 93    
Minimum Humidity 77    
Precipitation  
Precipitation T in 0.17 in 3.30 in (1980)
Month to date precipitation 0.10 2.89  
Year to date precipitation 61.94 53.33  
Sea Level Pressure  
Sea Level Pressure 30.25 in    
Wind  
Wind Speed 15 mph (NNE)    
Max Wind Speed 25 mph    
Max Gust Speed 30 mph    
Visibility 8 miles    
Events      
T = Trace of Precipitation, MM = Missing Value Source: NWS Daily Summary

Daily Weather History Graph

Daily Weather History Graph

Search for Another Location

Airport or City:

Trip Planner

Search our weather history database for the weather conditions in past years. The results will help you decide how hot, cold, wet, or windy it might be!

Date:

Astronomy

Nov. 23, 2013 Rise Set
Actual Time 6:39 AM CST 5:08 PM CST
Civil Twilight 6:13 AM CST 5:34 PM CST
Nautical Twilight 5:44 AM CST 6:03 PM CST
Astronomical Twilight 5:15 AM CST 6:32 PM CST
Moon 10:27 PM CST (11/23) 11:04 AM CST (11/23)
Length of Visible Light 11h 20m
Length of Day
10h 28m
Waning Gibbous, 69% of the Moon is Illuminated
Nov 23
Waning Gibbous
Nov 25
Last Quarter
Dec 2
New
Dec 9
First Quarter
Dec 17
Full

Hourly Weather History & Observations

Time (CST) Temp. Dew Point Humidity Pressure Visibility Wind Dir Wind Speed Gust Speed Precip Events Conditions
12:20 AM 66.2 °F 64.4 °F 94% 30.18 in 10.0 mi NE 11.5 mph 19.6 mph N/A   Overcast
12:48 AM 66.2 °F 62.6 °F 88% 30.18 in 10.0 mi NE 10.4 mph - N/A   Overcast
12:53 AM 66.0 °F 63.0 °F 90% 30.17 in 10.0 mi NE 11.5 mph - N/A   Overcast
1:53 AM 66.0 °F 63.0 °F 90% 30.19 in 10.0 mi NE 9.2 mph - N/A   Overcast
2:53 AM 66.0 °F 63.0 °F 90% 30.18 in 10.0 mi NE 10.4 mph - N/A   Overcast
3:18 AM 66.2 °F 62.6 °F 88% 30.18 in 10.0 mi NNE 9.2 mph - N/A   Overcast
3:53 AM 66.0 °F 62.1 °F 87% 30.18 in 10.0 mi NNE 10.4 mph - N/A   Overcast
4:39 AM 64.4 °F 62.6 °F 94% 30.19 in 10.0 mi North 9.2 mph - N/A   Overcast
4:53 AM 64.0 °F 61.0 °F 90% 30.19 in 10.0 mi North 9.2 mph - N/A   Overcast
5:08 AM 64.4 °F 60.8 °F 88% 30.19 in 9.0 mi North 10.4 mph - N/A   Overcast
5:48 AM 62.6 °F 60.8 °F 94% 30.20 in 7.0 mi North 11.5 mph - N/A   Overcast
5:53 AM 62.1 °F 59.0 °F 90% 30.20 in 6.0 mi North 11.5 mph - N/A   Overcast
6:51 AM 59.0 °F 57.2 °F 94% 30.22 in 2.5 mi North 13.8 mph - N/A   Overcast
6:53 AM 59.0 °F 57.0 °F 93% 30.22 in 2.5 mi North 11.5 mph - N/A   Overcast
7:05 AM 57.2 °F 57.2 °F 100% 30.23 in 1.8 mi North 13.8 mph - N/A   Overcast
7:20 AM 57.2 °F 55.4 °F 94% 30.24 in 2.0 mi North 15.0 mph - N/A   Overcast
7:49 AM 57.2 °F 55.4 °F 94% 30.24 in 3.0 mi North 13.8 mph - N/A   Overcast
7:53 AM 57.0 °F 55.0 °F 93% 30.24 in 3.0 mi North 12.7 mph - N/A   Overcast
8:02 AM 57.2 °F 55.4 °F 94% 30.25 in 2.5 mi North 15.0 mph - N/A   Overcast
8:23 AM 55.4 °F 53.6 °F 94% 30.25 in 3.0 mi North 15.0 mph - N/A   Overcast
8:51 AM 55.4 °F 51.8 °F 88% 30.27 in 4.0 mi North - - N/A   Overcast
8:53 AM 55.0 °F 52.0 °F 89% 30.27 in 4.0 mi North - - N/A   Overcast
9:53 AM 55.0 °F 52.0 °F 89% 30.27 in 10.0 mi North 16.1 mph - N/A   Overcast
10:53 AM 54.0 °F 50.0 °F 86% 30.28 in 10.0 mi North 17.3 mph - N/A   Overcast
11:53 AM 53.1 °F 48.9 °F 86% 30.27 in 10.0 mi North 16.1 mph - N/A   Overcast
12:53 PM 53.1 °F 48.0 °F 83% 30.25 in 9.0 mi North 16.1 mph - 0.00 in   Overcast
1:53 PM 52.0 °F 48.0 °F 86% 30.24 in 10.0 mi North 18.4 mph 24.2 mph 0.00 in   Overcast
2:53 PM 52.0 °F 46.9 °F 83% 30.25 in 10.0 mi North 16.1 mph 21.9 mph N/A   Overcast
3:53 PM 51.1 °F 46.9 °F 86% 30.26 in 10.0 mi NNE 19.6 mph - 0.00 in   Overcast
4:53 PM 51.1 °F 46.9 °F 86% 30.26 in 10.0 mi North 15.0 mph 27.6 mph 0.00 in   Overcast
5:53 PM 50.0 °F 46.0 °F 86% 30.28 in 10.0 mi NNE 21.9 mph 27.6 mph N/A   Overcast
6:53 PM 50.0 °F 46.0 °F 86% 30.29 in 10.0 mi NNE 19.6 mph 27.6 mph N/A   Overcast
7:38 PM 51.8 °F 46.4 °F 82% 30.30 in 10.0 mi NNE 17.3 mph 24.2 mph N/A   Overcast
7:53 PM 51.1 °F 46.0 °F 83% 30.31 in 10.0 mi NNE 16.1 mph - N/A   Overcast
8:29 PM 50.0 °F 44.6 °F 82% 30.32 in 10.0 mi NNE 17.3 mph 25.3 mph N/A   Overcast
8:53 PM 51.1 °F 45.0 °F 80% 30.33 in 10.0 mi North 16.1 mph 25.3 mph N/A   Overcast
9:41 PM 50.0 °F 44.6 °F 82% 30.34 in 10.0 mi NNE 13.8 mph 25.3 mph N/A   Overcast
9:53 PM 50.0 °F 44.1 °F 80% 30.34 in 10.0 mi NNE 16.1 mph 25.3 mph N/A   Overcast
10:16 PM 50.0 °F 44.6 °F 82% 30.34 in 10.0 mi NNE 23.0 mph 28.8 mph N/A   Overcast
10:50 PM 48.2 °F 42.8 °F 82% 30.34 in 10.0 mi NNE 19.6 mph 25.3 mph 0.00 in   Mostly Cloudy
10:53 PM 48.9 °F 43.0 °F 80% 30.35 in 10.0 mi NNE 19.6 mph 26.5 mph 0.00 in   Scattered Clouds
11:53 PM 48.0 °F 39.9 °F 74% 30.35 in 10.0 mi NNE 20.7 mph 29.9 mph 0.00 in   Clear